Regional Weather Roundup
Issued by NWS Sioux Falls, SD

Home | Current Version | Previous Version | Text Only | Print | Product List | Glossary On
Versions: 1 2 3 4 5 6 7 8 9 10 11 12 13 14 15 16 17 18 19 20 21 22 23 24 25 26 27 28 29 30 31 32 33 34 35 36 37 38 39 40 41 42 43 44 45 46 47 48 49 50
000
ASUS43 KFSD 310702
RWRFSD

WEATHER ROUNDUP FOR SE SOUTH DAKOTA/SW MINNESOTA/NW IOWA
NATIONAL WEATHER SERVICE SIOUX FALLS SD
200 AM CDT MON AUG 31 2015

NOTE: "FAIR" INDICATES FEW OR NO CLOUDS BELOW 12,000 FEET WITH NO
SIGNIFICANT WEATHER AND OR OBSTRUCTIONS TO VISIBILITY.


SDZ038>040-050-052>070-310800-
SOUTHEAST SOUTH DAKOTA

CITY           SKY/WX    TMP DP  RH WIND       PRES   REMARKS
BROOKINGS      CLEAR     64  63  94 S12       29.90S
CHAMBERLAIN    NOT AVBL
HURON          CLEAR     67  65  93 S12       29.79F
MADISON        FAIR      64  64 100 S10       29.90R
MITCHELL       CLEAR     68  65  90 S15       29.83S
SIOUX FALLS    PTCLDY    66  64  93 S13       29.90S
WINNER         FAIR      75  56  51 S25G36    29.77S
YANKTON        PTCLDY    68  64  88 S10       29.88S
$$

MNZ071-072-080-081-089-090-097-098-310800-
SOUTHWEST MINNESOTA

CITY           SKY/WX    TMP DP  RH WIND       PRES   REMARKS
FAIRMONT       PTCLDY    64  59  82 S8        29.95S
JACKSON        PTCLDY    64  64 100 S10       29.95S FOG
LUVERNE          N/A     63  61  94 S5        29.92F FOG
MARSHALL       PTCLDY    66  61  82 SW17G26   29.87S
MONTEVIDEO     PTCLDY    64  64 100 S9        29.86F FOG
PIPESTONE      PTCLDY    66  64  94 S12G17    29.91F FOG
REDWOOD FALLS  PTCLDY    65  63  93 S8        29.88F
TRACY          PTCLDY    68  66  92 SW20G28   29.89S
WINDOM         PTCLDY    66  64  94 S10       29.93S
WORTHINGTON    PTCLDY    64  63  94 S14       29.93F
$$

IAZ001>003-012>014-020>022-031-032-NEZ013-014-SDZ071-310800-
NORTHWEST IOWA

CITY           SKY/WX    TMP DP  RH WIND       PRES   REMARKS
DENISON        CLOUDY    66  66 100 SE7G13    29.96F
ESTHERVILLE    PTCLDY    62  62 100 S10       29.96R FOG
SIOUX CITY     NOT AVBL
SPENCER        PTCLDY    63  60  90 S3        29.96S FOG
$$

ABBREVIATIONS USED IN REMARKS
   TC - TEMPERATURE IN CELSIUS
  WCI - WIND CHILL INDEX
   HX - HEAT INDEX
  VSB - VISIBILITY




USA.gov is the U.S. government's official web portal to all federal, state and local government web resources and services.